User: anonymous   Login
Location: Springfield
(37.2150°N, 93.2980°W)
Time: 23:32:27
(UTC-05:00)
Language:

Iridium 62 - Orbit

View from above orbital plane
View from above orbital plane
View from above satellite
View from above satellite

Ground track
Ground track

The orbit data is extracted from the following two-line orbital elements,

1 25285U 98021A   16237.48836078  .00000027  00000-0  27550-5 0  9998
2 25285  86.4000 347.9453 0002065  96.4715 263.6716 14.34216149962498
Epoch (UTC): 24 August 2016 11:43:14
Eccentricity: 0.0002065
inclination: 86.4000°
perigee height: 776 km
apogee height: 779 km
right ascension of ascending node: 347.9453°
argument of perigee: 96.4715°
revolutions per day: 14.34216149
mean anomaly at epoch: 263.6716°
orbit number at epoch: 96249

The dashed part of the orbit path shows where the satellite is in the earth's shadow,  

DLR